Location: Le Rocchette
(44.3500°N, 7.8333°E)
Time: 21:53:05
(UTC+00:00)

NOSS 3-4 (C) - Pass Details

Date: 17 November 2019
Orbit: 908 x 1304 km, 63.4° (Epoch: 02 December)

Event Time Altitude Azimuth Distance (km) Brightness Sun altitude
Exits shadow 04:41:11 14° 327° (NNW) 2,671 5.4 -18.8°
Maximum altitude 04:47:25 67° 50° (NE) 1,240 4.1 -17.7°
Drops below altitude 10° 04:55:03 10° 132° (SE) 3,187 7.1 -16.3°
Sets 04:57:57 0° 135° (SE) 4,194 7.8 -15.8°
